Time,TemperatureF,DewpointF,PressureIn,WindDirection,WindDirectionDegrees,WindSpeedMPH,WindSpeedGustMPH,Humidity,HourlyPrecipIn,Conditions,Clouds,dailyrainin,SoftwareType,DateUTC
2013-04-18 00:02:00,65.6,58.6,30.10,East,90,3.0,3.0,78,0.00,,,0.02,Wunderground v.1.15,2013-04-18 04:02:00,
2013-04-18 00:03:00,65.6,58.6,30.10,ESE,114,3.0,3.0,78,0.00,,,0.02,Wunderground v.1.15,2013-04-18 04:03:00,
2013-04-18 00:04:00,65.6,58.6,30.10,ESE,102,3.0,3.0,78,0.00,,,0.02,Wunderground v.1.15,2013-04-18 04:04:00,
2013-04-18 00:08:00,65.5,58.5,30.10,East,86,3.0,4.0,78,0.00,,,0.00,Wunderground v.1.15,2013-04-18 04:08:00,
2013-04-18 00:13:00,65.4,58.4,30.10,ESE,104,3.0,9.0,78,0.00,,,0.00,Wunderground v.1.15,2013-04-18 04:13:00,
2013-04-18 00:15:00,65.2,58.2,30.09,ENE,77,4.0,9.0,78,0.00,,,0.00,Wunderground v.1.15,2013-04-18 04:15:00,
2013-04-18 00:21:00,64.8,58.1,30.08,East,93,8.0,13.0,79,0.00,,,0.00,Wunderground v.1.15,2013-04-18 04:21:00,
2013-04-18 00:26:00,64.6,57.9,30.08,ESE,109,10.0,14.0,79,0.00,,,0.00,Wunderground v.1.15,2013-04-18 04:26:00,
2013-04-18 00:32:00,64.3,58.0,30.08,ENE,78,8.0,9.0,80,0.00,,,0.00,Wunderground v.1.15,2013-04-18 04:32:00,
2013-04-18 00:38:00,64.1,57.8,30.08,ENE,77,7.0,9.0,80,0.00,,,0.00,Wunderground v.1.15,2013-04-18 04:38:00,
2013-04-18 00:43:00,64.0,57.7,30.08,ESE,112,7.0,10.0,80,0.00,,,0.00,Wunderground v.1.15,2013-04-18 04:43:00,
2013-04-18 00:48:00,64.0,57.7,30.08,ESE,116,7.0,14.0,80,0.00,,,0.00,Wunderground v.1.15,2013-04-18 04:48:00,
2013-04-18 00:54:00,64.0,57.7,30.08,East,95,7.0,14.0,80,0.00,,,0.00,Wunderground v.1.15,2013-04-18 04:54:00,
2013-04-18 00:59:00,64.0,57.7,30.08,ENE,70,6.0,14.0,80,0.00,,,0.00,Wunderground v.1.15,2013-04-18 04:59:00,
2013-04-18 01:05:00,63.9,57.6,30.08,NE,46,6.0,14.0,80,0.00,,,0.00,Wunderground v.1.15,2013-04-18 05:05:00,
2013-04-18 01:10:00,63.9,57.6,30.09,SE,133,5.0,14.0,80,0.00,,,0.00,Wunderground v.1.15,2013-04-18 05:10:00,
2013-04-18 01:16:00,64.0,57.7,30.09,ESE,112,5.0,14.0,80,0.00,,,0.00,Wunderground v.1.15,2013-04-18 05:16:00,
2013-04-18 01:21:00,64.0,57.7,30.09,ESE,122,4.0,14.0,80,0.00,,,0.00,Wunderground v.1.15,2013-04-18 05:21:00,
2013-04-18 01:27:00,64.0,58.1,30.08,ENE,73,4.0,14.0,81,0.00,,,0.00,Wunderground v.1.15,2013-04-18 05:27:00,
2013-04-18 01:33:00,64.0,58.1,30.08,ENE,71,3.0,14.0,81,0.00,,,0.00,Wunderground v.1.15,2013-04-18 05:33:00,
2013-04-18 01:38:00,64.0,58.1,30.08,East,85,3.0,14.0,81,0.00,,,0.00,Wunderground v.1.15,2013-04-18 05:38:00,
2013-04-18 01:44:00,63.9,58.0,30.08,NE,45,3.0,14.0,81,0.00,,,0.00,Wunderground v.1.15,2013-04-18 05:44:00,
2013-04-18 01:49:00,63.8,57.5,30.08,East,94,2.0,14.0,80,0.00,,,0.00,Wunderground v.1.15,2013-04-18 05:49:00,
2013-04-18 01:54:00,63.7,57.4,30.09,ENE,64,2.0,14.0,80,0.00,,,0.00,Wunderground v.1.15,2013-04-18 05:54:00,
2013-04-18 02:00:00,63.6,57.7,30.09,ENE,61,1.0,1.0,81,0.00,,,0.00,Wunderground v.1.15,2013-04-18 06:00:00,
2013-04-18 02:06:00,63.6,57.7,30.09,ENE,62,0.0,14.0,81,0.00,,,0.00,Wunderground v.1.15,2013-04-18 06:06:00,
2013-04-18 02:11:00,63.6,57.7,30.09,ENE,67,1.0,14.0,81,0.00,,,0.00,Wunderground v.1.15,2013-04-18 06:11:00,
2013-04-18 02:17:00,63.5,57.6,30.09,SE,135,2.0,14.0,81,0.00,,,0.00,Wunderground v.1.15,2013-04-18 06:17:00,
2013-04-18 02:22:00,63.5,57.6,30.09,ESE,112,3.0,14.0,81,0.00,,,0.00,Wunderground v.1.15,2013-04-18 06:22:00,
2013-04-18 02:27:00,63.4,57.5,30.08,ENE,78,4.0,14.0,81,0.00,,,0.00,Wunderground v.1.15,2013-04-18 06:27:00,
2013-04-18 02:33:00,63.3,57.4,30.08,SSE,160,4.0,14.0,81,0.00,,,0.00,Wunderground v.1.15,2013-04-18 06:33:00,
2013-04-18 02:38:00,63.2,57.3,30.08,SE,143,3.0,14.0,81,0.00,,,0.00,Wunderground v.1.15,2013-04-18 06:38:00,
2013-04-18 02:43:00,63.2,57.3,30.08,SE,126,2.0,14.0,81,0.00,,,0.00,Wunderground v.1.15,2013-04-18 06:43:00,
2013-04-18 02:49:00,63.1,57.5,30.08,South,173,3.0,14.0,82,0.00,,,0.00,Wunderground v.1.15,2013-04-18 06:49:00,
2013-04-18 02:54:00,63.0,57.4,30.08,SSW,197,2.0,14.0,82,0.00,,,0.00,Wunderground v.1.15,2013-04-18 06:54:00,
2013-04-18 03:00:00,62.9,57.7,30.08,SSE,161,1.0,14.0,83,0.00,,,0.00,Wunderground v.1.15,2013-04-18 07:00:00,
2013-04-18 03:05:00,62.8,57.6,30.07,SE,142,2.0,14.0,83,0.00,,,0.00,Wunderground v.1.15,2013-04-18 07:05:00,
2013-04-18 03:11:00,62.9,57.3,30.07,ESE,119,3.0,14.0,82,0.00,,,0.00,Wunderground v.1.15,2013-04-18 07:11:00,
2013-04-18 03:16:00,62.8,57.6,30.07,South,172,3.0,14.0,83,0.00,,,0.00,Wunderground v.1.15,2013-04-18 07:16:00,
2013-04-18 03:21:00,62.7,57.5,30.07,SE,143,3.0,14.0,83,0.00,,,0.00,Wunderground v.1.15,2013-04-18 07:21:00,
2013-04-18 03:26:00,62.5,56.9,30.06,SSE,162,4.0,14.0,82,0.00,,,0.00,Wunderground v.1.15,2013-04-18 07:26:00,
2013-04-18 03:32:00,62.2,57.3,30.06,SE,126,3.0,14.0,84,0.00,,,0.00,Wunderground v.1.15,2013-04-18 07:32:00,
2013-04-18 03:38:00,62.3,57.4,30.06,ESE,109,5.0,14.0,84,0.00,,,0.00,Wunderground v.1.15,2013-04-18 07:38:00,
2013-04-18 03:43:00,62.3,57.4,30.06,ESE,109,7.0,14.0,84,0.00,,,0.00,Wunderground v.1.15,2013-04-18 07:43:00,
2013-04-18 03:48:00,62.2,57.3,30.06,SE,136,7.0,14.0,84,0.00,,,0.00,Wunderground v.1.15,2013-04-18 07:48:00,
2013-04-18 03:54:00,62.0,57.1,30.07,ESE,105,4.0,14.0,84,0.00,,,0.00,Wunderground v.1.15,2013-04-18 07:54:00,
2013-04-18 03:59:00,61.9,57.0,30.07,ESE,118,3.0,14.0,84,0.00,,,0.01,Wunderground v.1.15,2013-04-18 07:59:00,
2013-04-18 04:05:00,61.7,57.1,30.07,ESE,116,4.0,14.0,85,0.00,,,0.01,Wunderground v.1.15,2013-04-18 08:05:00,
2013-04-18 04:10:00,61.6,57.0,30.06,SE,129,6.0,14.0,85,0.00,,,0.01,Wunderground v.1.15,2013-04-18 08:10:00,
2013-04-18 04:16:00,61.6,57.0,30.06,ESE,122,6.0,14.0,85,0.00,,,0.01,Wunderground v.1.15,2013-04-18 08:16:00,
2013-04-18 04:21:00,61.6,57.0,30.06,SSE,162,4.0,14.0,85,0.00,,,0.01,Wunderground v.1.15,2013-04-18 08:21:00,
2013-04-18 04:27:00,61.6,57.0,30.06,ESE,110,3.0,14.0,85,0.00,,,0.01,Wunderground v.1.15,2013-04-18 08:27:00,
2013-04-18 04:32:00,61.6,57.0,30.06,SE,137,3.0,14.0,85,0.00,,,0.01,Wunderground v.1.15,2013-04-18 08:32:00,
2013-04-18 04:38:00,61.6,57.0,30.06,SSE,156,3.0,14.0,85,0.00,,,0.01,Wunderground v.1.15,2013-04-18 08:38:00,
2013-04-18 04:43:00,61.4,56.8,30.06,ESE,108,3.0,14.0,85,0.00,,,0.01,Wunderground v.1.15,2013-04-18 08:43:00,
2013-04-18 04:49:00,61.3,57.1,30.06,SE,140,3.0,14.0,86,0.00,,,0.01,Wunderground v.1.15,2013-04-18 08:49:00,
2013-04-18 04:54:00,61.3,57.1,30.06,ESE,110,3.0,14.0,86,0.00,,,0.01,Wunderground v.1.15,2013-04-18 08:54:00,
2013-04-18 04:59:00,61.3,57.1,30.06,East,99,2.0,14.0,86,0.00,,,0.01,Wunderground v.1.15,2013-04-18 08:59:00,
2013-04-18 05:05:00,61.2,57.0,30.05,East,95,2.0,14.0,86,0.00,,,0.01,Wunderground v.1.15,2013-04-18 09:05:00,
2013-04-18 05:10:00,61.2,57.0,30.06,ESE,116,2.0,2.0,86,0.00,,,0.01,Wunderground v.1.15,2013-04-18 09:10:00,
2013-04-18 05:16:00,61.2,57.0,30.06,SSE,166,1.0,14.0,86,0.00,,,0.01,Wunderground v.1.15,2013-04-18 09:16:00,
2013-04-18 05:21:00,61.0,56.8,30.06,SE,129,2.0,14.0,86,0.00,,,0.01,Wunderground v.1.15,2013-04-18 09:21:00,
2013-04-18 05:27:00,60.8,56.9,30.06,East,97,3.0,14.0,87,0.00,,,0.01,Wunderground v.1.15,2013-04-18 09:27:00,
2013-04-18 05:33:00,60.6,56.7,30.06,SE,125,3.0,14.0,87,0.00,,,0.01,Wunderground v.1.15,2013-04-18 09:33:00,
2013-04-18 05:38:00,60.5,56.6,30.06,SE,145,2.0,14.0,87,0.00,,,0.01,Wunderground v.1.15,2013-04-18 09:38:00,
2013-04-18 05:44:00,60.5,56.9,30.06,WSW,244,1.0,14.0,88,0.00,,,0.01,Wunderground v.1.15,2013-04-18 09:44:00,
2013-04-18 05:49:00,60.4,56.8,30.06,SE,137,1.0,14.0,88,0.00,,,0.01,Wunderground v.1.15,2013-04-18 09:49:00,
2013-04-18 05:55:00,60.3,56.7,30.06,SSE,161,2.0,14.0,88,0.00,,,0.01,Wunderground v.1.15,2013-04-18 09:55:00,
2013-04-18 06:00:00,60.2,56.6,30.06,SSE,161,1.0,14.0,88,0.00,,,0.01,Wunderground v.1.15,2013-04-18 10:00:00,
2013-04-18 06:06:00,60.1,56.8,30.06,South,191,1.0,14.0,89,0.00,,,0.01,Wunderground v.1.15,2013-04-18 10:06:00,
2013-04-18 06:11:00,60.1,56.8,30.07,SSE,149,2.0,14.0,89,0.00,,,0.01,Wunderground v.1.15,2013-04-18 10:11:00,
2013-04-18 06:17:00,60.0,56.7,30.07,South,171,3.0,14.0,89,0.00,,,0.01,Wunderground v.1.15,2013-04-18 10:17:00,
2013-04-18 06:23:00,60.0,56.7,30.07,SSW,195,4.0,14.0,89,0.00,,,0.01,Wunderground v.1.15,2013-04-18 10:23:00,
2013-04-18 06:28:00,59.9,56.6,30.06,South,176,4.0,14.0,89,0.00,,,0.01,Wunderground v.1.15,2013-04-18 10:28:00,
2013-04-18 06:34:00,59.7,56.8,30.06,ESE,112,4.0,14.0,90,0.00,,,0.01,Wunderground v.1.15,2013-04-18 10:34:00,
2013-04-18 06:39:00,59.6,56.7,30.06,SE,141,4.0,14.0,90,0.00,,,0.01,Wunderground v.1.15,2013-04-18 10:39:00,
2013-04-18 06:44:00,59.7,56.8,30.07,SSE,151,4.0,14.0,90,0.00,,,0.01,Wunderground v.1.15,2013-04-18 10:44:00,
2013-04-18 06:50:00,59.8,56.9,30.07,SSE,148,3.0,3.0,90,0.00,,,0.01,Wunderground v.1.15,2013-04-18 10:50:00,
2013-04-18 06:55:00,59.9,57.0,30.07,ESE,116,3.0,14.0,90,0.00,,,0.01,Wunderground v.1.15,2013-04-18 10:55:00,
2013-04-18 07:00:00,60.0,56.7,30.07,South,183,4.0,14.0,89,0.00,,,0.01,Wunderground v.1.15,2013-04-18 11:00:00,
2013-04-18 07:06:00,60.0,56.7,30.07,SE,132,5.0,14.0,89,0.00,,,0.01,Wunderground v.1.15,2013-04-18 11:06:00,
2013-04-18 07:11:00,60.1,56.8,30.08,SSE,168,4.0,14.0,89,0.00,,,0.01,Wunderground v.1.15,2013-04-18 11:11:00,
2013-04-18 07:17:00,60.0,56.7,30.07,SE,138,3.0,14.0,89,0.00,,,0.01,Wunderground v.1.15,2013-04-18 11:17:00,
2013-04-18 07:22:00,60.0,56.7,30.07,ESE,108,2.0,14.0,89,0.00,,,0.01,Wunderground v.1.15,2013-04-18 11:22:00,
2013-04-18 07:27:00,60.0,56.7,30.08,ESE,115,3.0,14.0,89,0.00,,,0.01,Wunderground v.1.15,2013-04-18 11:27:00,
2013-04-18 07:33:00,59.9,56.6,30.08,SE,145,4.0,14.0,89,0.00,,,0.01,Wunderground v.1.15,2013-04-18 11:33:00,
2013-04-18 07:38:00,59.9,56.6,30.08,South,172,3.0,14.0,89,0.00,,,0.01,Wunderground v.1.15,2013-04-18 11:38:00,
2013-04-18 07:43:00,60.0,56.7,30.08,SSE,150,2.0,14.0,89,0.00,,,0.01,Wunderground v.1.15,2013-04-18 11:43:00,
2013-04-18 07:49:00,60.0,56.7,30.08,SE,127,1.0,14.0,89,0.00,,,0.01,Wunderground v.1.15,2013-04-18 11:49:00,
2013-04-18 07:54:00,60.0,56.4,30.08,SE,139,2.0,14.0,88,0.00,,,0.01,Wunderground v.1.15,2013-04-18 11:54:00,
2013-04-18 07:59:00,60.0,56.4,30.08,ESE,119,4.0,14.0,88,0.00,,,0.01,Wunderground v.1.15,2013-04-18 11:59:00,
2013-04-18 08:05:00,60.0,56.4,30.08,ESE,118,5.0,14.0,88,0.00,,,0.01,Wunderground v.1.15,2013-04-18 12:05:00,
2013-04-18 08:11:00,60.2,56.6,30.08,ESE,106,5.0,9.0,88,0.00,,,0.01,Wunderground v.1.15,2013-04-18 12:11:00,
2013-04-18 08:16:00,60.4,56.5,30.08,SE,127,5.0,14.0,87,0.00,,,0.01,Wunderground v.1.15,2013-04-18 12:16:00,
2013-04-18 08:22:00,60.4,56.5,30.08,ESE,110,6.0,14.0,87,0.00,,,0.01,Wunderground v.1.15,2013-04-18 12:22:00,
2013-04-18 08:28:00,60.4,56.5,30.09,SE,131,6.0,14.0,87,0.00,,,0.01,Wunderground v.1.15,2013-04-18 12:28:00,
2013-04-18 08:33:00,60.4,56.5,30.08,SE,134,6.0,14.0,87,0.00,,,0.01,Wunderground v.1.15,2013-04-18 12:33:00,
2013-04-18 08:39:00,60.4,56.5,30.09,SSE,166,5.0,14.0,87,0.00,,,0.01,Wunderground v.1.15,2013-04-18 12:39:00,
2013-04-18 08:44:00,60.3,56.4,30.09,SE,138,6.0,14.0,87,0.00,,,0.01,Wunderground v.1.15,2013-04-18 12:44:00,
2013-04-18 08:49:00,60.2,56.3,30.09,SSE,166,6.0,14.0,87,0.00,,,0.01,Wunderground v.1.15,2013-04-18 12:49:00,
2013-04-18 08:55:00,60.1,56.5,30.10,SE,132,4.0,14.0,88,0.00,,,0.01,Wunderground v.1.15,2013-04-18 12:55:00,
2013-04-18 09:00:00,60.0,56.4,30.10,SE,127,5.0,14.0,88,0.00,,,0.01,Wunderground v.1.15,2013-04-18 13:00:00,
2013-04-18 09:06:00,59.9,56.3,30.10,SE,135,6.0,14.0,88,0.00,,,0.01,Wunderground v.1.15,2013-04-18 13:06:00,
2013-04-18 09:11:00,60.0,56.4,30.10,SE,138,6.0,14.0,88,0.00,,,0.01,Wunderground v.1.15,2013-04-18 13:11:00,
2013-04-18 09:17:00,60.0,56.4,30.10,SE,146,6.0,14.0,88,0.00,,,0.01,Wunderground v.1.15,2013-04-18 13:17:00,
2013-04-18 09:23:00,60.0,56.4,30.10,SE,137,6.0,14.0,88,0.00,,,0.01,Wunderground v.1.15,2013-04-18 13:23:00,
2013-04-18 09:28:00,59.9,56.3,30.10,SSE,166,5.0,14.0,88,0.00,,,0.01,Wunderground v.1.15,2013-04-18 13:28:00,
2013-04-18 09:33:00,59.7,56.5,30.10,SSE,149,6.0,14.0,89,0.00,,,0.01,Wunderground v.1.15,2013-04-18 13:33:00,
2013-04-18 09:39:00,59.5,56.3,30.10,SE,145,6.0,14.0,89,0.00,,,0.01,Wunderground v.1.15,2013-04-18 13:39:00,
2013-04-18 09:44:00,59.6,56.7,30.10,South,179,7.0,14.0,90,0.00,,,0.01,Wunderground v.1.15,2013-04-18 13:44:00,
2013-04-18 09:50:00,59.8,56.6,30.09,SE,137,6.0,6.0,89,0.00,,,0.01,Wunderground v.1.15,2013-04-18 13:50:00,
2013-04-18 09:55:00,60.0,56.7,30.09,SSE,149,5.0,14.0,89,0.00,,,0.01,Wunderground v.1.15,2013-04-18 13:55:00,
2013-04-18 10:01:00,60.2,56.6,30.10,SE,141,6.0,14.0,88,0.00,,,0.01,Wunderground v.1.15,2013-04-18 14:01:00,
2013-04-18 10:06:00,60.5,56.6,30.09,SSE,166,6.0,14.0,87,0.00,,,0.01,Wunderground v.1.15,2013-04-18 14:06:00,
2013-04-18 10:12:00,60.7,56.8,30.10,South,179,6.0,14.0,87,0.00,,,0.01,Wunderground v.1.15,2013-04-18 14:12:00,
2013-04-18 10:17:00,61.0,57.1,30.10,SSE,154,5.0,14.0,87,0.00,,,0.01,Wunderground v.1.15,2013-04-18 14:17:00,
2013-04-18 10:22:00,61.1,57.2,30.10,SE,128,6.0,14.0,87,0.00,,,0.01,Wunderground v.1.15,2013-04-18 14:22:00,
2013-04-18 10:28:00,60.8,56.9,30.10,SE,137,7.0,14.0,87,0.00,,,0.01,Wunderground v.1.15,2013-04-18 14:28:00,
2013-04-18 10:34:00,60.5,56.9,30.10,SE,139,7.0,14.0,88,0.00,,,0.01,Wunderground v.1.15,2013-04-18 14:34:00,
2013-04-18 10:39:00,60.5,56.9,30.09,ESE,114,8.0,14.0,88,0.00,,,0.01,Wunderground v.1.15,2013-04-18 14:39:00,
2013-04-18 10:45:00,60.9,57.3,30.09,SE,131,7.0,14.0,88,0.00,,,0.01,Wunderground v.1.15,2013-04-18 14:45:00,
2013-04-18 10:50:00,61.2,57.6,30.10,SSE,149,6.0,14.0,88,0.00,,,0.01,Wunderground v.1.15,2013-04-18 14:50:00,
2013-04-18 10:57:00,61.0,57.4,30.09,SE,139,7.0,14.0,88,0.00,,,0.01,Wunderground v.1.15,2013-04-18 14:57:00,
2013-04-18 11:03:00,61.1,57.5,30.09,NNE,27,7.0,14.0,88,0.00,,,0.01,Wunderground v.1.15,2013-04-18 15:03:00,
2013-04-18 11:09:00,61.2,57.6,30.09,SE,138,7.0,14.0,88,0.00,,,0.01,Wunderground v.1.15,2013-04-18 15:09:00,
2013-04-18 11:14:00,61.2,57.3,30.10,SE,139,8.0,14.0,87,0.00,,,0.01,Wunderground v.1.15,2013-04-18 15:14:00,
2013-04-18 11:20:00,61.3,57.7,30.10,SSE,152,7.0,7.0,88,0.00,,,0.01,Wunderground v.1.15,2013-04-18 15:20:00,
2013-04-18 11:26:00,61.1,57.8,30.10,SE,127,7.0,14.0,89,0.00,,,0.01,Wunderground v.1.15,2013-04-18 15:26:00,
2013-04-18 11:32:00,61.2,57.9,30.09,ESE,118,8.0,14.0,89,0.00,,,0.01,Wunderground v.1.15,2013-04-18 15:32:00,
2013-04-18 11:38:00,61.5,58.2,30.09,SE,131,8.0,14.0,89,0.00,,,0.01,Wunderground v.1.15,2013-04-18 15:38:00,
2013-04-18 11:43:00,61.8,58.5,30.08,South,171,8.0,14.0,89,0.00,,,0.01,Wunderground v.1.15,2013-04-18 15:43:00,
2013-04-18 11:48:00,62.2,58.3,30.09,SE,127,9.0,14.0,87,0.00,,,0.01,Wunderground v.1.15,2013-04-18 15:48:00,
2013-04-18 11:54:00,61.8,58.2,30.08,SSE,164,10.0,14.0,88,0.00,,,0.01,Wunderground v.1.15,2013-04-18 15:54:00,
2013-04-18 12:00:00,61.6,58.6,30.09,ESE,122,10.0,14.0,90,0.00,,,0.01,Wunderground v.1.15,2013-04-18 16:00:00,
2013-04-18 12:05:00,61.7,58.4,30.08,ESE,120,11.0,14.0,89,0.00,,,0.01,Wunderground v.1.15,2013-04-18 16:05:00,
2013-04-18 12:11:00,61.8,58.5,30.08,SSE,153,10.0,14.0,89,0.00,,,0.01,Wunderground v.1.15,2013-04-18 16:11:00,
2013-04-18 12:16:00,62.2,58.6,30.07,ESE,118,10.0,14.0,88,0.00,,,0.01,Wunderground v.1.15,2013-04-18 16:16:00,
2013-04-18 12:21:00,62.3,58.7,30.07,SE,135,10.0,14.0,88,0.00,,,0.01,Wunderground v.1.15,2013-04-18 16:21:00,
2013-04-18 12:27:00,62.3,58.7,30.07,SSE,152,11.0,14.0,88,0.00,,,0.01,Wunderground v.1.15,2013-04-18 16:27:00,
2013-04-18 12:33:00,62.7,59.1,30.07,SE,143,10.0,14.0,88,0.00,,,0.01,Wunderground v.1.15,2013-04-18 16:33:00,
2013-04-18 12:38:00,63.2,59.6,30.07,ESE,122,10.0,14.0,88,0.00,,,0.01,Wunderground v.1.15,2013-04-18 16:38:00,
2013-04-18 12:44:00,63.6,59.7,30.07,SE,133,10.0,14.0,87,0.00,,,0.01,Wunderground v.1.15,2013-04-18 16:44:00,
2013-04-18 12:49:00,63.5,59.6,30.07,SE,125,10.0,14.0,87,0.00,,,0.01,Wunderground v.1.15,2013-04-18 16:49:00,
2013-04-18 12:55:00,63.7,59.4,30.07,East,91,10.0,14.0,86,0.00,,,0.01,Wunderground v.1.15,2013-04-18 16:55:00,
2013-04-18 13:00:00,63.3,59.4,30.06,SE,124,11.0,14.0,87,0.00,,,0.01,Wunderground v.1.15,2013-04-18 17:00:00,
2013-04-18 13:06:00,63.4,59.5,30.06,SE,140,11.0,14.0,87,0.00,,,0.01,Wunderground v.1.15,2013-04-18 17:06:00,
2013-04-18 13:11:00,63.6,59.7,30.06,ESE,123,11.0,18.0,87,0.00,,,0.01,Wunderground v.1.15,2013-04-18 17:11:00,
2013-04-18 13:17:00,64.1,60.2,30.06,SE,126,11.0,18.0,87,0.00,,,0.01,Wunderground v.1.15,2013-04-18 17:17:00,
2013-04-18 13:23:00,64.7,60.7,30.06,SE,139,11.0,16.0,87,0.00,,,0.01,Wunderground v.1.15,2013-04-18 17:23:00,
2013-04-18 13:28:00,63.9,60.0,30.06,SE,145,11.0,16.0,87,0.00,,,0.01,Wunderground v.1.15,2013-04-18 17:28:00,
2013-04-18 13:34:00,64.0,60.1,30.06,SE,132,12.0,14.0,87,0.00,,,0.01,Wunderground v.1.15,2013-04-18 17:34:00,
2013-04-18 13:39:00,64.0,60.1,30.05,ESE,112,12.0,16.0,87,0.00,,,0.01,Wunderground v.1.15,2013-04-18 17:39:00,
2013-04-18 13:45:00,64.4,60.1,30.05,ESE,110,11.0,15.0,86,0.00,,,0.01,Wunderground v.1.15,2013-04-18 17:45:00,
2013-04-18 13:50:00,64.9,60.3,30.05,ESE,118,11.0,14.0,85,0.00,,,0.01,Wunderground v.1.15,2013-04-18 17:50:00,
2013-04-18 13:56:00,65.9,60.6,30.05,ESE,118,11.0,14.0,83,0.00,,,0.01,Wunderground v.1.15,2013-04-18 17:56:00,
2013-04-18 14:01:00,66.3,60.6,30.05,SE,124,10.0,12.0,82,0.00,,,0.01,Wunderground v.1.15,2013-04-18 18:01:00,
2013-04-18 14:06:00,66.5,60.8,30.05,SE,137,10.0,14.0,82,0.00,,,0.01,Wunderground v.1.15,2013-04-18 18:06:00,
2013-04-18 14:12:00,66.7,60.7,30.05,ESE,120,10.0,14.0,81,0.00,,,0.01,Wunderground v.1.15,2013-04-18 18:12:00,
2013-04-18 14:18:00,66.5,60.5,30.05,SE,129,9.0,14.0,81,0.00,,,0.01,Wunderground v.1.15,2013-04-18 18:18:00,
2013-04-18 14:23:00,66.8,60.8,30.05,SSE,152,8.0,14.0,81,0.00,,,0.01,Wunderground v.1.15,2013-04-18 18:23:00,
2013-04-18 14:29:00,66.8,60.8,30.04,SE,139,8.0,14.0,81,0.00,,,0.01,Wunderground v.1.15,2013-04-18 18:29:00,
2013-04-18 14:35:00,66.5,60.5,30.04,SE,125,9.0,14.0,81,0.00,,,0.01,Wunderground v.1.15,2013-04-18 18:35:00,
2013-04-18 14:40:00,66.7,60.7,30.03,SSE,154,9.0,9.0,81,0.00,,,0.01,Wunderground v.1.15,2013-04-18 18:40:00,
2013-04-18 14:45:00,67.3,61.3,30.03,ESE,122,8.0,14.0,81,0.00,,,0.01,Wunderground v.1.15,2013-04-18 18:45:00,
2013-04-18 14:51:00,67.2,60.8,30.02,East,99,9.0,14.0,80,0.00,,,0.01,Wunderground v.1.15,2013-04-18 18:51:00,
2013-04-18 14:57:00,67.9,61.1,30.02,East,101,11.0,15.0,79,0.00,,,0.01,Wunderground v.1.15,2013-04-18 18:57:00,
2013-04-18 15:03:00,68.3,61.2,30.02,ESE,123,11.0,14.0,78,0.00,,,0.01,Wunderground v.1.15,2013-04-18 19:03:00,
2013-04-18 15:09:00,69.1,61.6,30.02,SE,127,10.0,14.0,77,0.00,,,0.01,Wunderground v.1.15,2013-04-18 19:09:00,
2013-04-18 15:15:00,69.3,61.4,30.02,SE,124,9.0,14.0,76,0.00,,,0.01,Wunderground v.1.15,2013-04-18 19:15:00,
2013-04-18 15:20:00,69.9,62.0,30.01,SE,135,9.0,9.0,76,0.00,,,0.01,Wunderground v.1.15,2013-04-18 19:20:00,
2013-04-18 15:26:00,70.2,60.7,30.01,SE,141,9.0,14.0,72,0.00,,,0.01,Wunderground v.1.15,2013-04-18 19:26:00,
2013-04-18 15:32:00,70.5,61.4,30.01,SSE,167,9.0,14.0,73,0.00,,,0.01,Wunderground v.1.15,2013-04-18 19:32:00,
2013-04-18 15:37:00,70.7,61.2,30.00,SSE,166,7.0,14.0,72,0.00,,,0.01,Wunderground v.1.15,2013-04-18 19:37:00,
2013-04-18 15:42:00,70.7,60.8,30.00,South,174,7.0,14.0,71,0.00,,,0.01,Wunderground v.1.15,2013-04-18 19:42:00,
2013-04-18 15:48:00,71.1,61.2,30.00,South,179,7.0,14.0,71,0.00,,,0.01,Wunderground v.1.15,2013-04-18 19:48:00,
2013-04-18 15:53:00,71.1,61.2,30.00,South,183,8.0,14.0,71,0.00,,,0.01,Wunderground v.1.15,2013-04-18 19:53:00,
2013-04-18 15:58:00,71.6,61.3,29.99,SSE,160,6.0,14.0,70,0.00,,,0.01,Wunderground v.1.15,2013-04-18 19:58:00,
2013-04-18 16:04:00,72.2,60.6,29.99,SSW,202,6.0,14.0,67,0.00,,,0.01,Wunderground v.1.15,2013-04-18 20:04:00,
2013-04-18 16:10:00,72.5,60.5,29.99,South,185,8.0,14.0,66,0.00,,,0.01,Wunderground v.1.15,2013-04-18 20:10:00,
2013-04-18 16:15:00,72.2,60.6,29.99,SSE,159,8.0,14.0,67,0.00,,,0.01,Wunderground v.1.15,2013-04-18 20:15:00,
2013-04-18 16:20:00,72.1,61.0,29.98,ESE,103,9.0,14.0,68,0.00,,,0.01,Wunderground v.1.15,2013-04-18 20:20:00,
2013-04-18 16:26:00,71.7,61.0,29.98,SSE,158,10.0,14.0,69,0.00,,,0.01,Wunderground v.1.15,2013-04-18 20:26:00,
2013-04-18 16:31:00,72.0,60.9,29.98,East,93,9.0,11.0,68,0.00,,,0.01,Wunderground v.1.15,2013-04-18 20:31:00,
2013-04-18 16:36:00,72.6,61.4,29.98,SSE,159,7.0,14.0,68,0.00,,,0.01,Wunderground v.1.15,2013-04-18 20:36:00,
2013-04-18 16:42:00,72.2,60.6,29.98,SSE,162,8.0,14.0,67,0.00,,,0.01,Wunderground v.1.15,2013-04-18 20:42:00,
2013-04-18 16:47:00,72.4,60.8,29.98,SSE,163,8.0,14.0,67,0.00,,,0.01,Wunderground v.1.15,2013-04-18 20:47:00,
2013-04-18 16:53:00,72.5,60.5,29.97,SW,220,6.0,14.0,66,0.00,,,0.01,Wunderground v.1.15,2013-04-18 20:53:00,
2013-04-18 16:58:00,72.6,60.2,29.98,South,175,5.0,14.0,65,0.00,,,0.01,Wunderground v.1.15,2013-04-18 20:58:00,
2013-04-18 17:04:00,72.7,59.8,29.98,South,173,5.0,14.0,64,0.00,,,0.01,Wunderground v.1.15,2013-04-18 21:04:00,
2013-04-18 17:09:00,72.7,58.9,29.97,WSW,239,7.0,14.0,62,0.00,,,0.01,Wunderground v.1.15,2013-04-18 21:09:00,
2013-04-18 17:15:00,72.9,58.7,29.97,SSE,159,10.0,14.0,61,0.00,,,0.01,Wunderground v.1.15,2013-04-18 21:15:00,
2013-04-18 17:20:00,73.1,58.4,29.97,SSE,168,9.0,14.0,60,0.00,,,0.01,Wunderground v.1.15,2013-04-18 21:20:00,
2013-04-18 17:25:00,73.4,58.2,29.97,South,172,10.0,14.0,59,0.00,,,0.01,Wunderground v.1.15,2013-04-18 21:25:00,
2013-04-18 17:32:00,73.6,57.9,29.97,SSE,161,11.0,16.0,58,0.00,,,0.01,Wunderground v.1.15,2013-04-18 21:32:00,
2013-04-18 17:38:00,73.8,58.1,29.97,SSW,209,10.0,16.0,58,0.00,,,0.01,Wunderground v.1.15,2013-04-18 21:38:00,
2013-04-18 17:43:00,74.0,57.8,29.97,South,179,9.0,16.0,57,0.00,,,0.01,Wunderground v.1.15,2013-04-18 21:43:00,
2013-04-18 17:48:00,74.0,57.3,29.97,SSE,166,9.0,16.0,56,0.00,,,0.01,Wunderground v.1.15,2013-04-18 21:48:00,
2013-04-18 17:54:00,73.5,55.8,29.97,South,186,11.0,15.0,54,0.00,,,0.01,Wunderground v.1.15,2013-04-18 21:54:00,
2013-04-18 18:00:00,73.0,55.4,29.97,SE,135,11.0,11.0,54,0.00,,,0.01,Wunderground v.1.15,2013-04-18 22:00:00,
2013-04-18 18:06:00,73.1,55.5,29.97,SE,143,11.0,14.0,54,0.00,,,0.01,Wunderground v.1.15,2013-04-18 22:06:00,
2013-04-18 18:11:00,73.6,55.9,29.96,SE,131,9.0,14.0,54,0.00,,,0.01,Wunderground v.1.15,2013-04-18 22:11:00,
2013-04-18 18:17:00,73.6,55.4,29.96,SE,140,7.0,16.0,53,0.00,,,0.01,Wunderground v.1.15,2013-04-18 22:17:00,
2013-04-18 18:22:00,73.4,55.2,29.96,SSE,168,9.0,14.0,53,0.00,,,0.01,Wunderground v.1.15,2013-04-18 22:22:00,
2013-04-18 18:27:00,73.5,54.8,29.96,SSE,158,9.0,15.0,52,0.00,,,0.01,Wunderground v.1.15,2013-04-18 22:27:00,
2013-04-18 18:33:00,73.4,55.2,29.96,SSW,206,10.0,14.0,53,0.00,,,0.01,Wunderground v.1.15,2013-04-18 22:33:00,
2013-04-18 18:38:00,73.4,55.2,29.96,South,170,9.0,14.0,53,0.00,,,0.01,Wunderground v.1.15,2013-04-18 22:38:00,
2013-04-18 18:44:00,73.3,55.1,29.96,SSE,150,8.0,14.0,53,0.00,,,0.01,Wunderground v.1.15,2013-04-18 22:44:00,
2013-04-18 18:49:00,73.2,55.0,29.96,SSE,160,9.0,14.0,53,0.00,,,0.01,Wunderground v.1.15,2013-04-18 22:49:00,
2013-04-18 18:54:00,73.1,55.5,29.96,SSE,151,9.0,14.0,54,0.00,,,0.01,Wunderground v.1.15,2013-04-18 22:54:00,
2013-04-18 18:59:00,73.0,55.4,29.95,South,181,9.0,14.0,54,0.00,,,0.01,Wunderground v.1.15,2013-04-18 22:59:00,
2013-04-18 19:05:00,72.7,55.6,29.95,SSE,154,9.0,14.0,55,0.00,,,0.01,Wunderground v.1.15,2013-04-18 23:05:00,
2013-04-18 19:10:00,72.5,55.4,29.95,SSE,154,8.0,14.0,55,0.00,,,0.01,Wunderground v.1.15,2013-04-18 23:10:00,
2013-04-18 19:16:00,72.2,55.6,29.95,SSW,198,9.0,15.0,56,0.00,,,0.01,Wunderground v.1.15,2013-04-18 23:16:00,
2013-04-18 19:21:00,72.1,55.5,29.95,SW,222,9.0,14.0,56,0.00,,,0.01,Wunderground v.1.15,2013-04-18 23:21:00,
2013-04-18 19:26:00,71.9,55.3,29.96,SSW,201,8.0,14.0,56,0.00,,,0.01,Wunderground v.1.15,2013-04-18 23:26:00,
2013-04-18 19:32:00,71.6,55.6,29.96,South,181,7.0,14.0,57,0.00,,,0.01,Wunderground v.1.15,2013-04-18 23:32:00,
2013-04-18 19:37:00,71.3,55.3,29.96,SSE,156,5.0,14.0,57,0.00,,,0.01,Wunderground v.1.15,2013-04-18 23:37:00,
2013-04-18 19:43:00,71.1,55.6,29.96,SSE,160,6.0,14.0,58,0.00,,,0.01,Wunderground v.1.15,2013-04-18 23:43:00,
2013-04-18 19:48:00,71.0,55.5,29.96,SSE,162,7.0,14.0,58,0.00,,,0.01,Wunderground v.1.15,2013-04-18 23:48:00,
2013-04-18 19:53:00,70.8,55.3,29.96,South,189,6.0,14.0,58,0.00,,,0.01,Wunderground v.1.15,2013-04-18 23:53:00,
2013-04-18 19:59:00,70.6,55.6,29.96,South,176,6.0,14.0,59,0.00,,,0.01,Wunderground v.1.15,2013-04-18 23:59:00,
2013-04-18 20:04:00,70.6,55.6,29.95,SE,145,7.0,14.0,59,0.00,,,0.01,Wunderground v.1.15,2013-04-19 00:04:00,
2013-04-18 20:09:00,70.5,55.5,29.95,SSE,152,7.0,14.0,59,0.00,,,0.01,Wunderground v.1.15,2013-04-19 00:09:00,
2013-04-18 20:15:00,70.3,55.3,29.95,SSE,147,6.0,14.0,59,0.00,,,0.01,Wunderground v.1.15,2013-04-19 00:15:00,
2013-04-18 20:21:00,70.1,55.1,29.95,SSE,160,6.0,14.0,59,0.00,,,0.01,Wunderground v.1.15,2013-04-19 00:21:00,
2013-04-18 20:26:00,70.0,55.0,29.95,SSE,147,6.0,14.0,59,0.00,,,0.01,Wunderground v.1.15,2013-04-19 00:26:00,
2013-04-18 20:31:00,70.0,55.0,29.95,SSE,161,6.0,14.0,59,0.00,,,0.01,Wunderground v.1.15,2013-04-19 00:31:00,
2013-04-18 20:37:00,69.8,54.8,29.95,SSW,197,5.0,14.0,59,0.00,,,0.01,Wunderground v.1.15,2013-04-19 00:37:00,
2013-04-18 20:42:00,69.6,55.1,29.95,SSE,154,5.0,14.0,60,0.00,,,0.01,Wunderground v.1.15,2013-04-19 00:42:00,
2013-04-18 20:48:00,69.4,54.9,29.95,SSE,147,4.0,14.0,60,0.00,,,0.01,Wunderground v.1.15,2013-04-19 00:48:00,
2013-04-18 20:53:00,69.5,55.0,29.95,SSE,160,5.0,14.0,60,0.00,,,0.01,Wunderground v.1.15,2013-04-19 00:53:00,
2013-04-18 20:58:00,69.4,54.9,29.95,SSE,149,6.0,14.0,60,0.00,,,0.01,Wunderground v.1.15,2013-04-19 00:58:00,
2013-04-18 21:04:00,69.2,54.7,29.95,SE,138,6.0,14.0,60,0.00,,,0.01,Wunderground v.1.15,2013-04-19 01:04:00,
2013-04-18 21:09:00,69.0,54.5,29.95,SSE,147,5.0,14.0,60,0.00,,,0.01,Wunderground v.1.15,2013-04-19 01:09:00,
2013-04-18 21:15:00,69.0,54.5,29.94,SSE,154,7.0,14.0,60,0.00,,,0.01,Wunderground v.1.15,2013-04-19 01:15:00,
2013-04-18 21:20:00,69.0,54.5,29.94,SSE,158,7.0,14.0,60,0.00,,,0.01,Wunderground v.1.15,2013-04-19 01:20:00,
2013-04-18 21:26:00,68.9,54.4,29.94,SSW,192,8.0,14.0,60,0.00,,,0.01,Wunderground v.1.15,2013-04-19 01:26:00,
2013-04-18 21:31:00,68.8,54.3,29.94,SSE,159,7.0,14.0,60,0.00,,,0.01,Wunderground v.1.15,2013-04-19 01:31:00,
2013-04-18 21:37:00,68.8,54.3,29.95,SE,141,8.0,14.0,60,0.00,,,0.01,Wunderground v.1.15,2013-04-19 01:37:00,
2013-04-18 21:42:00,68.7,54.3,29.94,SSE,152,8.0,14.0,60,0.00,,,0.01,Wunderground v.1.15,2013-04-19 01:42:00,
2013-04-18 21:48:00,68.5,54.5,29.94,SE,145,7.0,14.0,61,0.00,,,0.01,Wunderground v.1.15,2013-04-19 01:48:00,
2013-04-18 21:53:00,68.4,54.4,29.94,SSE,164,8.0,14.0,61,0.00,,,0.01,Wunderground v.1.15,2013-04-19 01:53:00,
2013-04-18 21:58:00,68.3,54.3,29.94,SE,145,7.0,14.0,61,0.00,,,0.01,Wunderground v.1.15,2013-04-19 01:58:00,
2013-04-18 22:04:00,68.6,54.6,29.94,South,174,8.0,15.0,61,0.00,,,0.01,Wunderground v.1.15,2013-04-19 02:04:00,
2013-04-18 22:09:00,68.7,54.3,29.94,SSE,168,8.0,15.0,60,0.00,,,0.01,Wunderground v.1.15,2013-04-19 02:09:00,
2013-04-18 22:14:00,68.6,54.2,29.94,SE,145,7.0,14.0,60,0.00,,,0.01,Wunderground v.1.15,2013-04-19 02:14:00,
2013-04-18 22:20:00,68.4,54.4,29.94,SE,139,7.0,14.0,61,0.00,,,0.01,Wunderground v.1.15,2013-04-19 02:20:00,
2013-04-18 22:25:00,68.3,54.3,29.94,South,170,7.0,14.0,61,0.00,,,0.01,Wunderground v.1.15,2013-04-19 02:25:00,
2013-04-18 22:31:00,68.3,54.8,29.94,SSE,165,8.0,14.0,62,0.00,,,0.01,Wunderground v.1.15,2013-04-19 02:31:00,
2013-04-18 22:36:00,68.2,54.7,29.94,SSE,149,9.0,14.0,62,0.00,,,0.01,Wunderground v.1.15,2013-04-19 02:36:00,
2013-04-18 22:41:00,68.3,55.2,29.94,SSE,163,9.0,14.0,63,0.00,,,0.01,Wunderground v.1.15,2013-04-19 02:41:00,
2013-04-18 22:47:00,68.2,55.1,29.94,South,169,8.0,14.0,63,0.00,,,0.01,Wunderground v.1.15,2013-04-19 02:47:00,
2013-04-18 22:52:00,68.4,55.7,29.94,SE,133,8.0,14.0,64,0.00,,,0.01,Wunderground v.1.15,2013-04-19 02:52:00,
2013-04-18 22:58:00,68.5,55.8,29.93,SE,146,8.0,14.0,64,0.00,,,0.01,Wunderground v.1.15,2013-04-19 02:58:00,
2013-04-18 23:03:00,68.5,56.3,29.93,South,182,9.0,14.0,65,0.00,,,0.01,Wunderground v.1.15,2013-04-19 03:03:00,
2013-04-18 23:09:00,68.6,56.8,29.93,SSE,150,10.0,17.0,66,0.00,,,0.01,Wunderground v.1.15,2013-04-19 03:09:00,
2013-04-18 23:14:00,68.6,56.8,29.93,SSE,147,10.0,14.0,66,0.00,,,0.01,Wunderground v.1.15,2013-04-19 03:14:00,
2013-04-18 23:20:00,68.5,56.7,29.92,SSE,162,9.0,14.0,66,0.00,,,0.01,Wunderground v.1.15,2013-04-19 03:20:00,
2013-04-18 23:25:00,68.4,57.0,29.92,ESE,118,8.0,14.0,67,0.00,,,0.01,Wunderground v.1.15,2013-04-19 03:25:00,
2013-04-18 23:30:00,68.3,56.9,29.92,SSE,157,8.0,8.0,67,0.00,,,0.01,Wunderground v.1.15,2013-04-19 03:30:00,
2013-04-18 23:35:00,68.2,57.2,29.92,SSE,164,8.0,14.0,68,0.00,,,0.01,Wunderground v.1.15,2013-04-19 03:35:00,
2013-04-18 23:41:00,68.2,57.2,29.92,South,172,9.0,14.0,68,0.00,,,0.01,Wunderground v.1.15,2013-04-19 03:41:00,
2013-04-18 23:46:00,68.0,57.0,29.92,SSE,157,9.0,14.0,68,0.00,,,0.01,Wunderground v.1.15,2013-04-19 03:46:00,
2013-04-18 23:52:00,67.9,56.9,29.92,South,172,8.0,14.0,68,0.00,,,0.01,Wunderground v.1.15,2013-04-19 03:52:00,
2013-04-18 23:57:00,67.9,56.9,29.91,SSE,150,8.0,14.0,68,0.00,,,0.01,Wunderground v.1.15,2013-04-19 03:57:00,